This demonstration page uses our WeatherBlox Daily Observations layout. Learn more.

Left ArrowRight Arrow

44.8408, -93.29828

Hourly Observations for November 30, 2016

Temp ( °F °C ) Dew Point ( °F °C ) Humidity (%) Winds ( mph kmh ) Pressure ( in mb ) Visibility ( mi km ) Precip ( " mm )
12:53 am 00:53 Cloudy with Drizzle 36 2.2 33 0.6 89 89 SW 6 9 29.45 997 10 16 0.01 0.25
1:53 am 01:53 Cloudy 36 2.2 33 0.6 89 89 SW 3 6 29.46 998 10 16 0.00 0.03
2:53 am 02:53 Cloudy 36 2.2 33 0.6 89 89 Calm 29.47 998 8 13 0.00 0.00
3:53 am 03:53 Cloudy 36 2.2 33 0.6 89 89 WNW 5 7 29.46 998 10 16 0.00 0.00
4:53 am 04:53 Cloudy 37 2.8 33 0.6 86 86 Calm 29.47 998 10 16 0.00 0.00
5:53 am 05:53 Cloudy with Drizzle 36 2.2 33 0.6 89 89 WSW 3 6 29.47 998 7 11 0.00 0.03
6:16 am 06:16 Cloudy with Drizzle 36 2 34 1 93 93 WNW 5 7 29.47 998 9 14 0.00 0.00
6:36 am 06:36 Cloudy with Drizzle 36 2.2 33 0.6 89 89 N 6 9 29.47 998 10 16 0.00 0.03
6:53 am 06:53 Cloudy with Drizzle 36 2.2 33 0.6 89 89 Calm 29.47 998 10 16 0.00 0.03
7:10 am 07:10 Cloudy with Drizzle 36 2.2 33 0.6 89 89 Calm 29.50 999 10 16 0.00 0.03
7:18 am 07:18 Cloudy with Drizzle 36 2 34 1 93 93 N 3 6 29.50 999 10 16 0.00 0.00
7:51 am 07:51 Cloudy with Drizzle 36 2 34 1 93 93 WNW 3 6 29.50 999 10 16 0.00 0.03
7:53 am 07:53 Cloudy with Drizzle 36 2.2 33 0.6 89 89 NW 3 6 29.49 999 10 16 0.00 0.03
8:45 am 08:45 Cloudy with Drizzle 36 2.2 34 1.1 93 93 VRB 3 6 29.50 999 10 16 0.00 0.03
8:53 am 08:53 Cloudy with Drizzle 36 2.2 33 0.6 89 89 NNW 5 7 29.49 999 10 16 0.00 0.03
9:08 am 09:08 Cloudy with Light Rain 37 2.8 33 0.6 86 86 N 3 6 29.50 999 10 16 0.01 0.25
9:53 am 09:53 Cloudy with Light Rain 37 2.8 34 1.1 89 89 N 6 9 29.50 999 9 14 0.01 0.25
10:09 am 10:09 Cloudy with Light Rain 37 2.8 33 0.6 86 86 N 7 11 29.53 1000 8 13 0.00 0.03
10:53 am 10:53 Cloudy with Light Rain 38 3.3 34 1.1 86 86 VRB 6 9 29.51 999 8 13 0.00 0.03
11:39 am 11:39 Cloudy 38 3.3 34 1.1 86 86 N 7 11 29.50 999 9 14 0.01 0.25
11:53 am 11:53 Cloudy 39 3.9 35 1.7 86 86 N 7 11 29.50 999 10 16 0.01 0.25
12:17 pm 12:17 Cloudy 39 4 34 1 81 81 NNW 8 13 29.50 999 10 16 0.00 0.00
12:53 pm 12:53 Cloudy 39 3.9 34 1.1 82 82 N 7 11 29.50 999 10 16 0.00 0.00
1:53 pm 13:53 Cloudy with Light Rain 39 3.9 33 0.6 79 79 NNW 8 13 29.50 999 10 16 0.00 0.03
2:53 pm 14:53 Cloudy 38 3.3 33 0.6 83 83 N 10 17 29.52 1000 10 16 0.00 0.03
3:53 pm 15:53 Cloudy 38 3.3 34 1.1 86 86 N 7 11 29.54 1001 10 16 0.00 0.03
4:15 pm 16:15 Cloudy 38 3.3 34 1.1 86 86 N 7 11 29.56 1001 10 16 0.00 0.03
4:33 pm 16:33 Cloudy with Drizzle 38 3.3 33 0.6 83 83 N 7 11 29.56 1001 10 16 0.00 0.03
4:40 pm 16:40 Cloudy with Drizzle 38 3.3 34 1.1 86 86 NNW 5 7 29.56 1001 10 16 0.00 0.03
4:49 pm 16:49 Cloudy with Light Rain 37 3 34 1 87 87 NNW 7 11 29.59 1002 10 16 0.00 0.03
4:53 pm 16:53 Cloudy with Light Rain 37 2.8 34 1.1 89 89 NNW 6 9 29.57 1001 10 16 0.00 0.03
5:05 pm 17:05 Cloudy with Light Rain 37 2.8 34 1.1 89 89 NNW 8 13 29.59 1002 10 16 0.00 0.03
5:48 pm 17:48 Cloudy with Light Rain 37 3 34 1 87 87 NNW 6 9 29.59 1002 10 16 0.00 0.00
5:53 pm 17:53 Cloudy 37 2.8 34 1.1 89 89 NNW 7 11 29.59 1002 10 16 0.01 0.25
6:12 pm 18:12 Cloudy with Drizzle 37 3 34 1 87 87 NNW 8 13 29.62 1003 10 16 0.00 0.00
6:40 pm 18:40 Cloudy 37 3 34 1 87 87 NNW 10 17 29.62 1003 10 16 0.00 0.00
6:53 pm 18:53 Cloudy 37 2.8 33 0.6 86 86 NNW 9 15 29.61 1003 10 16 0.00 0.03
7:53 pm 19:53 Cloudy with Light Rain 37 2.8 33 0.6 86 86 NW 8 13 29.62 1003 10 16 0.00 0.03
8:17 pm 20:17 Cloudy with Drizzle 37 2.8 34 1.1 89 89 NW 7 11 29.62 1003 10 16 0.00 0.03
8:53 pm 20:53 Cloudy 37 2.8 33 0.6 86 86 NW 10 17 29.63 1004 10 16 0.00 0.03
9:07 pm 21:07 Cloudy 37 2.8 33 0.6 86 86 NW 10 17 29.65 1004 10 16 0.00 0.00
9:46 pm 21:46 Cloudy with Light Rain 37 3 34 1 87 87 NW 10 17 29.65 1004 10 16 0.00 0.00
9:53 pm 21:53 Cloudy with Light Rain 37 2.8 33 0.6 86 86 WNW 9 15 29.65 1004 10 16 0.00 0.03
10:53 pm 22:53 Cloudy 37 2.8 33 0.6 86 86 NW 12 19 29.65 1004 10 16 0.00 0.03
11:53 pm 23:53 Cloudy with Light Rain 37 2.8 33 0.6 86 86 NW 13 20 29.67 1005 10 16 0.01 0.25

Powered by AerisWeather